Location: *
(45.9500°N, 9.0833°E)
Time: 20:53:53
(UTC+00:00)

Tiros 1 - Pass Details

Date: 17 June 2021
Orbit: 630 x 664 km, 48.4° (Epoch: 05 August)

Event Time Altitude Azimuth Distance (km) Brightness Sun altitude
Rises 09:55:27 0° 213° (SSW) 2,911 10.6 61.1°
Reaches altitude 10° 09:57:58 10° 202° (SSW) 2,011 10.0 61.4°
Maximum altitude 10:01:57 29° 142° (SE) 1,174 9.6 61.9°
Drops below altitude 10° 10:05:59 10° 83° (E) 2,037 10.1 62.4°
Sets 10:08:33 0° 72° (ENE) 2,956 10.7 62.7°
